This demonstration page uses our WeatherBlox Daily Observations layout. Learn more.

Left ArrowRight Arrow

38.20091, -84.87328

Hourly Observations for January 16, 2016

Temp ( °F °C ) Dew Point ( °F °C ) Humidity (%) Winds ( mph kmh ) Pressure ( in mb ) Visibility ( mi km ) Precip ( " mm )
12:53 am 00:53 Cloudy with Mist and Fog 35 1.7 32 0 89 89 WNW 14 22 29.63 1004 6 10 0.00 0.00
1:32 am 01:32 Cloudy 34 1.1 30 -1.1 85 85 W 9 15 29.68 1005 7 11 0.00 0.00
1:42 am 01:42 Cloudy with Mist and Fog 34 1.1 30 -1.1 85 85 W 8 13 29.68 1005 6 10 0.00 0.00
1:53 am 01:53 Cloudy with Mist and Fog 33 0.6 30 -1.1 89 89 WNW 15 24 29.66 1004 5 8 0.00 0.00
2:18 am 02:18 Cloudy with Mist and Fog 32 0 29 -1.7 88 88 W 10 17 29.71 1006 4 6 0.00 0.00
2:53 am 02:53 Cloudy with Mist and Fog 32 0 28 -2.2 85 85 WNW 14 22 29.70 1006 5 8 0.00 0.00
3:53 am 03:53 Cloudy with Mist and Fog 32 0 28 -2.2 85 85 W 12 19 29.72 1006 5 8 0.00 0.00
4:53 am 04:53 Cloudy with Mist and Fog 31 -0.6 28 -2.2 89 89 WNW 8 13 29.75 1007 5 8 0.00 0.00
5:11 am 05:11 Cloudy with Mist and Fog 31 -0.6 27 -2.8 85 85 WNW 8 13 29.77 1008 6 10 0.00 0.00
5:53 am 05:53 Cloudy 32 0 26 -3.3 79 79 WNW 10 17 29.77 1008 7 11 0.00 0.00
6:48 am 06:48 Cloudy 32 0 27 -3 80 80 W 6 9 29.83 1010 8 13 0.00 0.00
6:53 am 06:53 Cloudy 32 0 26 -3.3 79 79 W 6 9 29.81 1009 9 14 0.00 0.00
7:53 am 07:53 Cloudy 31 -0.6 27 -2.8 85 85 W 5 7 29.83 1010 7 11 0.00 0.00
8:53 am 08:53 Cloudy 31 -0.6 27 -2.8 85 85 WSW 7 11 29.84 1010 7 11 0.00 0.00
9:53 am 09:53 Cloudy 32 0 27 -2.8 82 82 W 5 7 29.87 1012 7 11 0.00 0.00
10:17 am 10:17 Cloudy with Mist and Fog 31 -0.6 28 -2.2 89 89 W 3 6 29.94 1014 3 5 0.00 0.00
10:27 am 10:27 Cloudy with Mist and Fog 31 -0.6 28 -2.2 89 89 W 5 7 29.94 1014 3 4 0.00 0.00
10:46 am 10:46 Cloudy with Mist and Fog 31 -0.6 28 -2.2 89 89 VRB 7 11 29.94 1014 3 5 0.00 0.00
10:53 am 10:53 Cloudy with Mist and Fog 31 -0.6 27 -2.8 85 85 W 6 9 29.90 1013 4 6 0.00 0.00
11:03 am 11:03 Cloudy 32 0 27 -2.8 82 82 WNW 9 15 29.94 1014 7 11 0.00 0.00
11:33 am 11:33 Cloudy with Mist and Fog 31 -0.6 27 -2.8 85 85 WNW 6 9 29.97 1015 4 6 0.00 0.00
11:53 am 11:53 Cloudy with Mist and Fog 31 -0.6 28 -2.2 89 89 W 7 11 29.91 1013 4 6 0.00 0.00
12:06 pm 12:06 Cloudy with Mist and Fog 31 -0.6 28 -2.2 89 89 WNW 5 7 29.97 1015 3 5 0.00 0.00
12:20 pm 12:20 Cloudy with Mist and Fog 31 -0.6 28 -2.2 89 89 VRB 6 9 29.94 1014 3 5 0.00 0.00
12:46 pm 12:46 Cloudy 32 0 27 -2.8 82 82 WNW 9 15 29.91 1013 8 13 0.00 0.00
12:53 pm 12:53 Cloudy 32 0 27 -2.8 82 82 WNW 6 9 29.90 1013 9 14 0.00 0.00
1:53 pm 13:53 Cloudy 31 -0.6 26 -3.3 82 82 W 7 11 29.91 1013 8 13 0.00 0.00
2:53 pm 14:53 Cloudy 32 0 26 -3.3 79 79 WNW 6 9 29.91 1013 9 14 0.00 0.00
3:15 pm 15:15 Cloudy 32 0 26 -3.3 79 79 WNW 6 9 29.94 1014 9 14 0.00 0.00
3:26 pm 15:26 Cloudy 32 0 26 -3.3 79 79 VRB 3 6 29.94 1014 9 14 0.00 0.00
3:43 pm 15:43 Cloudy 32 0 26 -3.3 79 79 W 5 7 29.94 1014 9 14 0.00 0.00
3:53 pm 15:53 Cloudy 32 0 27 -2.8 82 82 WSW 6 9 29.93 1014 7 11 0.00 0.00
4:53 pm 16:53 Cloudy with Haze 32 0 27 -2.8 82 82 NW 5 7 29.96 1015 6 10 0.00 0.00
5:53 pm 17:53 Cloudy 32 0 26 -3.3 79 79 Calm 29.96 1015 8 13 0.00 0.00
6:53 pm 18:53 Cloudy 32 0 25 -3.9 75 75 NW 3 6 29.97 1015 9 14 0.00 0.00
7:53 pm 19:53 Cloudy 32 0 26 -3.3 79 79 Calm 29.99 1016 8 13 0.00 0.00
8:53 pm 20:53 Cloudy 32 0 26 -3.3 79 79 Calm 29.98 1015 7 11 0.00 0.00
9:53 pm 21:53 Cloudy 31 -0.6 26 -3.3 82 82 W 5 7 29.99 1016 8 13 0.00 0.00
10:53 pm 22:53 Cloudy 31 -0.6 24 -4.4 76 76 WNW 3 6 29.96 1015 8 13 0.00 0.00
11:53 pm 23:53 Cloudy 31 -0.6 23 -5 72 72 WNW 5 7 29.97 1015 10 16 0.00 0.00

Powered by AerisWeather